User: anonymous
Location: Caltech
(34.1382°N, 118.1253°W)
Time: 05:21:29
(UTC-07:00)
Language:

Cosmos 1484 Rocket - Orbit

View from above orbital plane
View from above orbital plane
View from above satellite
View from above satellite

Ground track
Ground track

The orbit data is extracted from the following two-line orbital elements,

1 14208U 83075B   14265.38780189  .00002754  00000-0  18334-3 0  1284
2 14208 097.4163 298.7801 0041308 331.4938 028.4031 15.07246003696848
Epoch (UTC): 22 September 2014 09:18:26
Eccentricity: 0.0041308
inclination: 97.4163°
perigee height: 516 km
apogee height: 573 km
right ascension of ascending node: 298.7801°
argument of perigee: 331.4938°
revolutions per day: 15.07246003
mean anomaly at epoch: 28.4031°
orbit number at epoch: 69684

The dashed part of the orbit path shows where the satellite is in the earth's shadow,  

DLR